^^

..:: Storico WU ::..




Lo storico viene creato da WUnderground con i dati che la stazione Meteomincio invia al loro server. L' aggiornamento viene fatto ogni 5 minuti circa, tuttavia possono esserci intervalli pił ampi a causa di errori, interruzioni di servizio o problemi nell' invio tramite FTP.


Storico stazione MeteoMincio
Giorno Sommario per Giugno 24, 2022 Unità:  Inglese    Metrico   Entrambi
Giorno Settimana Mese Anno
  Max: Min: Media:
Temperatura: 91.4 °F 68 °F 78.4 °F
Dew Point: 69.8 °F 59 °F 64.4 °F
Umidità: 84% 37% 65%
Velocità vento: 19.3mph 0mph 5.3mph
Raffica: 23mph - -
Direzione- - SW
Pressione: 29.9 in 29.8 in -
Precipitazioni: 0 in    
 
 
Tabulato Dati per Giugno 24, 2022
Ora Temperatura Dew Point Pressione Direzione Velocità vento Raffica Umidità Intensità pioggia (oraria) Info solare Situazione
00:04 77 °F 66.2 °F 29.8 in SSW 4.3 mph 6.2 mph 69% 0 in 0.00 W/m2 unknown
00:09 77 °F 66.2 °F 29.8 in SW 3.7 mph 6.2 mph 70% 0 in 0.00 W/m2 unknown
00:14 77 °F 66.2 °F 29.8 in SSW 5 mph 6.8 mph 70% 0 in 0.00 W/m2 unknown
00:19 77 °F 66.2 °F 29.8 in SSW 5 mph 6.8 mph 70% 0 in 0.00 W/m2 unknown
00:24 77 °F 66.2 °F 29.8 in SW 5 mph 6.8 mph 71% 0 in 0.00 W/m2 unknown
00:29 77 °F 66.2 °F 29.8 in SW 5 mph 6.2 mph 71% 0 in 0.00 W/m2 unknown
00:34 77 °F 66.2 °F 29.8 in West 3.7 mph 6.2 mph 72% 0 in 0.00 W/m2 unknown
00:39 75.2 °F 66.2 °F 29.9 in WNW 5.6 mph 8.1 mph 73% 0 in 0.00 W/m2 unknown
00:44 75.2 °F 66.2 °F 29.9 in West 5.6 mph 8.1 mph 74% 0 in 0.00 W/m2 unknown
00:49 75.2 °F 66.2 °F 29.9 in West 6.2 mph 8.1 mph 75% 0 in 0.00 W/m2 unknown
00:54 73.4 °F 66.2 °F 29.9 in WNW 5 mph 8.1 mph 74% 0 in 0.00 W/m2 unknown
00:59 73.4 °F 66.2 °F 29.9 in West 5 mph 6.2 mph 74% 0 in 0.00 W/m2 unknown
01:04 73.4 °F 64.4 °F 29.9 in WNW 5 mph 6.2 mph 74% 0 in 0.00 W/m2 unknown
01:09 73.4 °F 66.2 °F 29.9 in WSW 3.7 mph 6.2 mph 75% 0 in 0.00 W/m2 unknown
01:14 73.4 °F 66.2 °F 29.9 in West 3.1 mph 6.2 mph 75% 0 in 0.00 W/m2 unknown
01:19 73.4 °F 64.4 °F 29.9 in West 1.9 mph 6.2 mph 75% 0 in 0.00 W/m2 unknown
01:24 73.4 °F 64.4 °F 29.9 in West 2.5 mph 3.7 mph 76% 0 in 0.00 W/m2 unknown
01:29 73.4 °F 64.4 °F 29.9 in WSW 2.5 mph 3.7 mph 76% 0 in 0.00 W/m2 unknown
01:34 73.4 °F 64.4 °F 29.8 in West 2.5 mph 3.7 mph 76% 0 in 0.00 W/m2 unknown
01:39 73.4 °F 64.4 °F 29.8 in WSW 2.5 mph 3.7 mph 76% 0 in 0.00 W/m2 unknown
01:44 73.4 °F 64.4 °F 29.8 in SW 2.5 mph 3.7 mph 76% 0 in 0.00 W/m2 unknown
01:49 73.4 °F 64.4 °F 29.8 in SW 2.5 mph 3.7 mph 76% 0 in 0.00 W/m2 unknown
01:54 73.4 °F 64.4 °F 29.8 in SW 2.5 mph 3.7 mph 76% 0 in 0.00 W/m2 unknown
01:59 73.4 °F 64.4 °F 29.8 in SSW 2.5 mph 3.7 mph 75% 0 in 0.00 W/m2 unknown
02:04 73.4 °F 64.4 °F 29.8 in SSW 3.1 mph 3.7 mph 75% 0 in 0.00 W/m2 unknown
02:09 73.4 °F 64.4 °F 29.8 in SW 3.1 mph 3.7 mph 75% 0 in 0.00 W/m2 unknown
02:13 73.4 °F 64.4 °F 29.8 in SSW 3.1 mph 3.7 mph 76% 0 in 0.00 W/m2 unknown
02:19 73.4 °F 64.4 °F 29.8 in SW 3.1 mph 3.7 mph 77% 0 in 0.00 W/m2 unknown
02:24 73.4 °F 64.4 °F 29.8 in SW 2.5 mph 3.7 mph 77% 0 in 0.00 W/m2 unknown
02:29 73.4 °F 64.4 °F 29.8 in SW 3.1 mph 5 mph 77% 0 in 0.00 W/m2 unknown
02:34 73.4 °F 64.4 °F 29.8 in SW 3.1 mph 5 mph 77% 0 in 0.00 W/m2 unknown
02:39 73.4 °F 64.4 °F 29.8 in SW 3.7 mph 5 mph 77% 0 in 0.00 W/m2 unknown
02:44 73.4 °F 64.4 °F 29.8 in SW 3.1 mph 5 mph 77% 0 in 0.00 W/m2 unknown
02:49 71.6 °F 64.4 °F 29.8 in WSW 2.5 mph 3.7 mph 78% 0 in 0.00 W/m2 unknown
02:54 71.6 °F 64.4 °F 29.8 in West 2.5 mph 3.7 mph 78% 0 in 0.00 W/m2 unknown
02:59 71.6 °F 64.4 °F 29.8 in West 2.5 mph 3.7 mph 78% 0 in 0.00 W/m2 unknown
03:04 71.6 °F 64.4 °F 29.8 in West 2.5 mph 3.7 mph 78% 0 in 0.00 W/m2 unknown
03:09 71.6 °F 64.4 °F 29.8 in West 1.9 mph 3.7 mph 79% 0 in 0.00 W/m2 unknown
03:14 71.6 °F 64.4 °F 29.8 in West 1.9 mph 3.1 mph 80% 0 in 0.00 W/m2 unknown
03:19 69.8 °F 64.4 °F 29.8 in West 1.9 mph 3.7 mph 81% 0 in 0.00 W/m2 unknown
03:22 69.8 °F 64.4 °F 29.8 in West 2.5 mph 3.7 mph 81% 0 in 0.00 W/m2 unknown
03:28 69.8 °F 64.4 °F 29.8 in West 1.9 mph 3.7 mph 81% 0 in 0.00 W/m2 unknown
03:34 69.8 °F 64.4 °F 29.8 in West 1.9 mph 3.7 mph 81% 0 in 0.00 W/m2 unknown
03:39 69.8 °F 64.4 °F 29.8 in West 2.5 mph 3.7 mph 81% 0 in 0.00 W/m2 unknown
03:44 69.8 °F 64.4 °F 29.8 in West 2.5 mph 3.7 mph 82% 0 in 0.00 W/m2 unknown
03:49 69.8 °F 64.4 °F 29.8 in West 2.5 mph 3.7 mph 83% 0 in 0.00 W/m2 unknown
03:54 69.8 °F 64.4 °F 29.8 in West 2.5 mph 3.7 mph 83% 0 in 0.00 W/m2 unknown
03:59 69.8 °F 64.4 °F 29.8 in West 2.5 mph 3.7 mph 84% 0 in 0.00 W/m2 unknown
04:03 69.8 °F 64.4 °F 29.8 in WSW 2.5 mph 3.7 mph 84% 0 in 0.00 W/m2 unknown
04:08 68 °F 64.4 °F 29.8 in WSW 2.5 mph 3.7 mph 84% 0 in 0.00 W/m2 unknown
04:13 68 °F 64.4 °F 29.8 in WSW 2.5 mph 3.7 mph 84% 0 in 0.00 W/m2 unknown
04:18 68 °F 64.4 °F 29.8 in WSW 3.7 mph 3.7 mph 84% 0 in 0.00 W/m2 unknown
04:22 68 °F 64.4 °F 29.8 in WSW 3.7 mph 3.7 mph 84% 0 in 0.00 W/m2 unknown
04:28 68 °F 64.4 °F 29.8 in SW 3.1 mph 3.7 mph 84% 0 in 0.00 W/m2 unknown
04:34 69.8 °F 64.4 °F 29.8 in WSW 3.1 mph 3.7 mph 84% 0 in 0.00 W/m2 unknown
04:38 69.8 °F 64.4 °F 29.8 in SW 1.9 mph 3.7 mph 83% 0 in 0.00 W/m2 unknown
04:44 69.8 °F 64.4 °F 29.8 in SW 1.9 mph 3.7 mph 83% 0 in 0.00 W/m2 unknown
04:48 69.8 °F 64.4 °F 29.8 in SW 1.2 mph 3.1 mph 82% 0 in 0.00 W/m2 unknown
04:52 69.8 °F 64.4 °F 29.8 in SSW 2.5 mph 3.7 mph 82% 0 in 0.00 W/m2 unknown
04:59 69.8 °F 64.4 °F 29.8 in SW 2.5 mph 3.7 mph 81% 0 in 0.00 W/m2 unknown
05:04 69.8 °F 64.4 °F 29.8 in SW 1.9 mph 3.7 mph 81% 0 in 0.00 W/m2 unknown
05:09 69.8 °F 64.4 °F 29.8 in SW 1.2 mph 3.7 mph 82% 0 in 0.00 W/m2 unknown
05:12 69.8 °F 64.4 °F 29.8 in SW 1.2 mph 3.7 mph 82% 0 in 0.00 W/m2 unknown
05:19 69.8 °F 64.4 °F 29.8 in SW 1.9 mph 3.7 mph 83% 0 in 0.00 W/m2 unknown
05:24 69.8 °F 62.6 °F 29.8 in SW 1.9 mph 3.7 mph 83% 0 in 0.00 W/m2 unknown
05:29 68 °F 64.4 °F 29.8 in SW 1.9 mph 3.7 mph 83% 0 in 0.00 W/m2 unknown
05:34 68 °F 64.4 °F 29.8 in SW 1.2 mph 2.5 mph 84% 0 in 0.00 W/m2 unknown
05:39 68 °F 62.6 °F 29.8 in SW 1.2 mph 2.5 mph 83% 0 in 5.00 W/m2 unknown
05:44 68 °F 62.6 °F 29.8 in SW 1.2 mph 2.5 mph 83% 0 in 7.00 W/m2 unknown
05:49 69.8 °F 64.4 °F 29.8 in WSW 1.2 mph 2.5 mph 83% 0 in 9.00 W/m2 unknown
05:54 69.8 °F 64.4 °F 29.8 in WSW 1.2 mph 2.5 mph 83% 0 in 12.00 W/m2 unknown
05:59 69.8 °F 64.4 °F 29.8 in WSW 1.2 mph 2.5 mph 83% 0 in 14.00 W/m2 unknown
06:03 69.8 °F 64.4 °F 29.8 in WSW 0.6 mph 1.2 mph 83% 0 in 18.00 W/m2 unknown
06:09 69.8 °F 64.4 °F 29.8 in WSW 0.6 mph 1.2 mph 83% 0 in 19.00 W/m2 unknown
06:14 69.8 °F 64.4 °F 29.8 in WSW 1.2 mph 2.5 mph 82% 0 in 23.00 W/m2 unknown
06:17 69.8 °F 64.4 °F 29.8 in WSW 1.2 mph 2.5 mph 82% 0 in 25.00 W/m2 unknown
06:24 69.8 °F 64.4 °F 29.8 in WSW 1.2 mph 2.5 mph 82% 0 in 30.00 W/m2 unknown
06:29 69.8 °F 64.4 °F 29.8 in West 1.2 mph 2.5 mph 83% 0 in 39.00 W/m2 unknown
06:34 69.8 °F 64.4 °F 29.8 in West 1.2 mph 1.2 mph 83% 0 in 47.00 W/m2 unknown
06:39 69.8 °F 64.4 °F 29.8 in ESE 0.6 mph 3.1 mph 82% 0 in 54.00 W/m2 unknown
06:44 69.8 °F 64.4 °F 29.8 in ENE 1.9 mph 3.7 mph 82% 0 in 65.00 W/m2 unknown
06:49 69.8 °F 64.4 °F 29.8 in ENE 1.9 mph 3.7 mph 83% 0 in 76.00 W/m2 unknown
06:54 69.8 °F 64.4 °F 29.8 in NNE 1.9 mph 3.7 mph 82% 0 in 86.00 W/m2 unknown
06:59 71.6 °F 64.4 °F 29.8 in NNW 1.2 mph 3.7 mph 82% 0 in 97.00 W/m2 unknown
07:04 71.6 °F 66.2 °F 29.8 in WSW 1.2 mph 3.1 mph 82% 0 in 111.00 W/m2 unknown
07:09 73.4 °F 66.2 °F 29.8 in WSW 1.2 mph 2.5 mph 80% 0 in 123.00 W/m2 unknown
07:14 73.4 °F 66.2 °F 29.8 in WSW 1.2 mph 2.5 mph 79% 0 in 132.00 W/m2 unknown
07:19 73.4 °F 66.2 °F 29.8 in WSW 1.2 mph 2.5 mph 80% 0 in 153.00 W/m2 unknown
07:24 73.4 °F 66.2 °F 29.8 in WSW 1.2 mph 2.5 mph 80% 0 in 167.00 W/m2 unknown
07:29 73.4 °F 66.2 °F 29.8 in Calm   1.9 mph 81% 0 in 176.00 W/m2 unknown
07:34 73.4 °F 66.2 °F 29.8 in West 0.6 mph 2.5 mph 80% 0 in 190.00 W/m2 unknown
07:39 73.4 °F 66.2 °F 29.8 in WSW 0.6 mph 2.5 mph 79% 0 in 202.00 W/m2 unknown
07:44 75.2 °F 68 °F 29.8 in WSW 1.2 mph 2.5 mph 78% 0 in 214.00 W/m2 unknown
07:49 75.2 °F 68 °F 29.8 in WSW 1.2 mph 3.7 mph 78% 0 in 227.00 W/m2 unknown
07:54 75.2 °F 68 °F 29.8 in SW 1.2 mph 3.7 mph 77% 0 in 239.00 W/m2 unknown
07:59 77 °F 68 °F 29.8 in SSW 1.2 mph 3.7 mph 78% 0 in 257.00 W/m2 unknown
08:04 77 °F 68 °F 29.8 in SSE 1.2 mph 3.1 mph 78% 0 in 269.00 W/m2 unknown
08:09 77 °F 69.8 °F 29.8 in SE 1.2 mph 2.5 mph 77% 0 in 283.00 W/m2 unknown
08:14 78.8 °F 69.8 °F 29.8 in SE 1.2 mph 2.5 mph 77% 0 in 295.00 W/m2 unknown
08:19 78.8 °F 69.8 °F 29.8 in SW 1.9 mph 3.7 mph 75% 0 in 309.00 W/m2 unknown
08:24 78.8 °F 68 °F 29.8 in South 1.9 mph 3.7 mph 72% 0 in 325.00 W/m2 unknown
08:29 78.8 °F 68 °F 29.8 in SSW 3.1 mph 6.2 mph 71% 0 in 339.00 W/m2 unknown
08:34 78.8 °F 66.2 °F 29.8 in SW 3.7 mph 5.6 mph 66% 0 in 355.00 W/m2 unknown
08:39 80.6 °F 68 °F 29.8 in SW 3.1 mph 6.2 mph 66% 0 in 367.00 W/m2 unknown
08:44 80.6 °F 68 °F 29.8 in West 3.7 mph 5 mph 65% 0 in 380.00 W/m2 unknown
08:49 80.6 °F 68 °F 29.8 in West 3.7 mph 5 mph 65% 0 in 392.00 W/m2 unknown
08:54 80.6 °F 66.2 °F 29.8 in West 3.1 mph 6.2 mph 64% 0 in 406.00 W/m2 unknown
08:59 80.6 °F 66.2 °F 29.8 in West 3.1 mph 6.2 mph 64% 0 in 424.00 W/m2 unknown
09:04 80.6 °F 66.2 °F 29.8 in West 3.1 mph 6.2 mph 63% 0 in 436.00 W/m2 unknown
09:09 80.6 °F 66.2 °F 29.8 in SW 3.7 mph 5 mph 63% 0 in 450.00 W/m2 unknown
09:14 80.6 °F 66.2 °F 29.8 in SSW 3.7 mph 6.2 mph 62% 0 in 461.00 W/m2 unknown
09:19 82.4 °F 66.2 °F 29.8 in SSW 5 mph 9.9 mph 61% 0 in 478.00 W/m2 unknown
09:24 82.4 °F 66.2 °F 29.8 in SW 6.2 mph 10.6 mph 59% 0 in 494.00 W/m2 unknown
09:29 82.4 °F 64.4 °F 29.8 in SW 6.2 mph 10.6 mph 57% 0 in 506.00 W/m2 unknown
09:34 82.4 °F 64.4 °F 29.8 in SW 6.2 mph 9.9 mph 57% 0 in 520.00 W/m2 unknown
09:39 82.4 °F 66.2 °F 29.8 in SW 5.6 mph 8.1 mph 58% 0 in 533.00 W/m2 unknown
09:44 82.4 °F 66.2 °F 29.8 in SW 5 mph 8.1 mph 58% 0 in 545.00 W/m2 unknown
09:49 82.4 °F 66.2 °F 29.8 in SW 5 mph 8.1 mph 58% 0 in 554.00 W/m2 unknown
09:54 82.4 °F 66.2 °F 29.8 in SSW 5 mph 6.8 mph 58% 0 in 570.00 W/m2 unknown
09:59 82.4 °F 66.2 °F 29.8 in SW 5.6 mph 10.6 mph 58% 0 in 585.00 W/m2 unknown
10:04 82.4 °F 66.2 °F 29.8 in WSW 5 mph 10.6 mph 58% 0 in 596.00 W/m2 unknown
10:09 82.4 °F 68 °F 29.8 in WSW 6.2 mph 10.6 mph 59% 0 in 606.00 W/m2 unknown
10:14 82.4 °F 66.2 °F 29.8 in SW 5 mph 9.9 mph 58% 0 in 624.00 W/m2 unknown
10:19 82.4 °F 66.2 °F 29.8 in WSW 6.2 mph 11.2 mph 58% 0 in 636.00 W/m2 unknown
10:24 82.4 °F 66.2 °F 29.8 in WNW 7.5 mph 11.8 mph 58% 0 in 649.00 W/m2 unknown
10:29 82.4 °F 66.2 °F 29.8 in WSW 6.8 mph 11.8 mph 58% 0 in 673.00 W/m2 unknown
10:34 84.2 °F 66.2 °F 29.8 in WSW 6.2 mph 10.6 mph 58% 0 in 673.00 W/m2 unknown
10:39 84.2 °F 66.2 °F 29.8 in West 7.5 mph 10.6 mph 57% 0 in 679.00 W/m2 unknown
10:44 84.2 °F 66.2 °F 29.8 in West 6.8 mph 9.9 mph 57% 0 in 680.00 W/m2 unknown
10:49 84.2 °F 66.2 °F 29.8 in WNW 6.8 mph 10.6 mph 55% 0 in 724.00 W/m2 unknown
10:54 84.2 °F 66.2 °F 29.8 in WSW 6.8 mph 10.6 mph 55% 0 in 724.00 W/m2 unknown
10:59 84.2 °F 66.2 °F 29.8 in WSW 4.3 mph 10.6 mph 56% 0 in 714.00 W/m2 unknown
11:04 84.2 °F 66.2 °F 29.8 in WSW 5.6 mph 8.7 mph 56% 0 in 742.00 W/m2 unknown
11:09 84.2 °F 66.2 °F 29.8 in WSW 6.2 mph 11.2 mph 55% 0 in 798.00 W/m2 unknown
11:14 84.2 °F 66.2 °F 29.8 in WSW 6.2 mph 11.8 mph 55% 0 in 798.00 W/m2 unknown
11:19 84.2 °F 66.2 °F 29.8 in West 6.2 mph 11.8 mph 55% 0 in 765.00 W/m2 unknown
11:24 86 °F 66.2 °F 29.8 in West 6.2 mph 11.8 mph 54% 0 in 805.00 W/m2 unknown
11:29 86 °F 66.2 °F 29.8 in West 5 mph 8.7 mph 54% 0 in 791.00 W/m2 unknown
11:34 86 °F 66.2 °F 29.8 in West 5 mph 8.1 mph 54% 0 in 821.00 W/m2 unknown
11:39 86 °F 66.2 °F 29.8 in West 5.6 mph 8.1 mph 53% 0 in 849.00 W/m2 unknown
11:44 86 °F 66.2 °F 29.8 in WNW 6.8 mph 8.1 mph 53% 0 in 886.00 W/m2 unknown
11:49 86 °F 66.2 °F 29.8 in SW 6.2 mph 8.1 mph 53% 0 in 831.00 W/m2 unknown
11:54 86 °F 66.2 °F 29.8 in WSW 5.6 mph 8.1 mph 53% 0 in 297.00 W/m2 unknown
11:59 84.2 °F 66.2 °F 29.8 in West 5.6 mph 8.1 mph 54% 0 in 297.00 W/m2 unknown
12:04 86 °F 66.2 °F 29.8 in WNW 6.2 mph 8.1 mph 54% 0 in 969.00 W/m2 unknown
12:09 86 °F 68 °F 29.8 in WSW 5 mph 8.1 mph 54% 0 in 1016.00 W/m2 unknown
12:14 86 °F 66.2 °F 29.8 in SW 5 mph 8.1 mph 52% 0 in 1016.00 W/m2 unknown
12:19 86 °F 66.2 °F 29.8 in WSW 5.6 mph 8.1 mph 52% 0 in 338.00 W/m2 unknown
12:24 86 °F 66.2 °F 29.8 in WSW 5.6 mph 9.3 mph 54% 0 in 763.00 W/m2 unknown
12:28 86 °F 66.2 °F 29.8 in WSW 6.2 mph 9.3 mph 54% 0 in 763.00 W/m2 unknown
12:34 86 °F 66.2 °F 29.8 in SW 6.2 mph 13 mph 52% 0 in 366.00 W/m2 unknown
12:39 87.8 °F 64.4 °F 29.8 in SW 9.3 mph 13 mph 47% 0 in 912.00 W/m2 unknown
12:44 87.8 °F 64.4 °F 29.8 in SW 9.3 mph 14.9 mph 47% 0 in 944.00 W/m2 unknown
12:49 87.8 °F 62.6 °F 29.8 in SW 9.3 mph 14.9 mph 44% 0 in 944.00 W/m2 unknown
12:54 89.6 °F 62.6 °F 29.8 in WSW 9.3 mph 11.8 mph 43% 0 in 1004.00 W/m2 unknown
12:59 89.6 °F 62.6 °F 29.8 in SW 8.7 mph 16.2 mph 43% 0 in 969.00 W/m2 unknown
13:04 89.6 °F 62.6 °F 29.8 in WSW 9.9 mph 16.2 mph 43% 0 in 1000.00 W/m2 unknown
13:09 89.6 °F 62.6 °F 29.8 in WSW 9.3 mph 16.2 mph 42% 0 in 977.00 W/m2 unknown
13:12 89.6 °F 62.6 °F 29.8 in SSW 9.9 mph 14.9 mph 41% 0 in 977.00 W/m2 unknown
13:19 89.6 °F 62.6 °F 29.8 in SSW 9.9 mph 14.9 mph 41% 0 in 970.00 W/m2 unknown
13:24 89.6 °F 62.6 °F 29.8 in SW 9.9 mph 14.9 mph 40% 0 in 1014.00 W/m2 unknown
13:29 89.6 °F 62.6 °F 29.8 in WSW 9.3 mph 14.9 mph 42% 0 in 1014.00 W/m2 unknown
13:34 89.6 °F 62.6 °F 29.8 in SSW 9.9 mph 14.3 mph 42% 0 in 970.00 W/m2 unknown
13:39 89.6 °F 60.8 °F 29.8 in SSW 10.6 mph 18 mph 40% 0 in 911.00 W/m2 unknown
13:44 89.6 °F 60.8 °F 29.8 in SW 10.6 mph 18 mph 39% 0 in 911.00 W/m2 unknown
13:49 89.6 °F 62.6 °F 29.8 in SW 8.1 mph 13 mph 41% 0 in 911.00 W/m2 unknown
13:54 89.6 °F 62.6 °F 29.8 in SSW 8.7 mph 14.9 mph 40% 0 in 898.00 W/m2 unknown
13:59 89.6 °F 60.8 °F 29.8 in SSW 9.9 mph 16.2 mph 39% 0 in 884.00 W/m2 unknown
14:04 89.6 °F 60.8 °F 29.8 in SW 11.2 mph 19.3 mph 38% 0 in 884.00 W/m2 unknown
14:09 89.6 °F 60.8 °F 29.8 in SW 13 mph 19.9 mph 38% 0 in 891.00 W/m2 unknown
14:14 89.6 °F 60.8 °F 29.8 in SW 13 mph 19.9 mph 37% 0 in 886.00 W/m2 unknown
14:19 89.6 °F 60.8 °F 29.8 in SW 13 mph 18.6 mph 39% 0 in 879.00 W/m2 unknown
14:24 89.6 °F 60.8 °F 29.8 in WSW 13 mph 18.6 mph 40% 0 in 884.00 W/m2 unknown
14:29 89.6 °F 62.6 °F 29.8 in West 12.4 mph 16.8 mph 40% 0 in 882.00 W/m2 unknown
14:34 89.6 °F 62.6 °F 29.8 in West 11.8 mph 16.2 mph 40% 0 in 867.00 W/m2 unknown
14:39 89.6 °F 60.8 °F 29.8 in SW 9.9 mph 16.2 mph 39% 0 in 863.00 W/m2 unknown
14:44 89.6 °F 62.6 °F 29.8 in SW 9.9 mph 16.2 mph 40% 0 in 842.00 W/m2 unknown
14:49 89.6 °F 62.6 °F 29.8 in SSW 9.9 mph 16.8 mph 39% 0 in 831.00 W/m2 unknown
14:54 89.6 °F 62.6 °F 29.8 in SSW 11.8 mph 17.4 mph 39% 0 in 826.00 W/m2 unknown
14:59 89.6 °F 60.8 °F 29.8 in South 11.2 mph 17.4 mph 39% 0 in 821.00 W/m2 unknown
15:04 89.6 °F 62.6 °F 29.8 in SW 9.9 mph 16.8 mph 40% 0 in 821.00 W/m2 unknown
15:09 89.6 °F 62.6 °F 29.8 in SSW 11.8 mph 18 mph 39% 0 in 817.00 W/m2 unknown
15:14 89.6 °F 60.8 °F 29.8 in SSW 11.8 mph 18.6 mph 39% 0 in 809.00 W/m2 unknown
15:19 89.6 °F 60.8 °F 29.8 in SSW 11.8 mph 21.1 mph 38% 0 in 803.00 W/m2 unknown
15:24 89.6 °F 60.8 °F 29.8 in WSW 12.4 mph 21.1 mph 37% 0 in 795.00 W/m2 unknown
15:29 89.6 °F 60.8 °F 29.8 in SW 14.3 mph 21.1 mph 37% 0 in 789.00 W/m2 unknown
15:34 89.6 °F 60.8 °F 29.8 in SW 15.5 mph 21.1 mph 37% 0 in 780.00 W/m2 unknown
15:39 89.6 °F 60.8 °F 29.8 in SSW 14.9 mph 18.6 mph 37% 0 in 775.00 W/m2 unknown
15:44 89.6 °F 60.8 °F 29.8 in SSW 14.9 mph 19.9 mph 38% 0 in 763.00 W/m2 unknown
15:49 89.6 °F 60.8 °F 29.8 in SSW 13 mph 19.9 mph 39% 0 in 763.00 W/m2 unknown
15:54 91.4 °F 62.6 °F 29.8 in SW 11.8 mph 19.9 mph 39% 0 in 805.00 W/m2 unknown
15:59 91.4 °F 62.6 °F 29.8 in SSW 11.2 mph 19.9 mph 39% 0 in 847.00 W/m2 unknown
16:04 89.6 °F 60.8 °F 29.8 in SSW 14.9 mph 19.9 mph 39% 0 in 854.00 W/m2 unknown
16:09 89.6 °F 60.8 °F 29.8 in SW 14.9 mph 19.9 mph 39% 0 in 844.00 W/m2 unknown
16:14 89.6 °F 62.6 °F 29.8 in SSW 14.3 mph 19.9 mph 39% 0 in 800.00 W/m2 unknown
16:19 89.6 °F 60.8 °F 29.8 in SW 12.4 mph 19.9 mph 39% 0 in 552.00 W/m2 unknown
16:24 89.6 °F 62.6 °F 29.8 in SSW 11.8 mph 19.9 mph 41% 0 in 260.00 W/m2 unknown
16:29 87.8 °F 60.8 °F 29.8 in South 9.3 mph 14.9 mph 41% 0 in 244.00 W/m2 unknown
16:34 87.8 °F 60.8 °F 29.8 in SSW 9.9 mph 14.9 mph 41% 0 in 244.00 W/m2 unknown
16:39 87.8 °F 62.6 °F 29.8 in SSW 9.3 mph 14.9 mph 42% 0 in 250.00 W/m2 unknown
16:44 87.8 °F 62.6 °F 29.8 in SW 8.7 mph 16.2 mph 42% 0 in 250.00 W/m2 unknown
16:49 87.8 °F 60.8 °F 29.8 in SW 8.1 mph 16.2 mph 41% 0 in 234.00 W/m2 unknown
16:54 87.8 °F 60.8 °F 29.8 in SW 9.9 mph 14.9 mph 42% 0 in 225.00 W/m2 unknown
16:59 86 °F 60.8 °F 29.8 in SW 9.3 mph 18.6 mph 42% 0 in 211.00 W/m2 unknown
17:04 86 °F 60.8 °F 29.8 in SW 16.2 mph 21.7 mph 42% 0 in 179.00 W/m2 unknown
17:09 86 °F 60.8 °F 29.8 in SW 14.3 mph 23 mph 42% 0 in 153.00 W/m2 unknown
17:14 86 °F 60.8 °F 29.8 in SW 18.6 mph 23 mph 41% 0 in 128.00 W/m2 unknown
17:19 86 °F 60.8 °F 29.8 in SW 19.3 mph 23 mph 43% 0 in 109.00 W/m2 unknown
17:24 86 °F 60.8 °F 29.8 in SW 16.8 mph 23 mph 44% 0 in 104.00 W/m2 unknown
17:29 84.2 °F 59 °F 29.8 in SW 14.3 mph 21.7 mph 43% 0 in 109.00 W/m2 unknown
17:34 84.2 °F 60.8 °F 29.8 in SW 14.9 mph 19.9 mph 44% 0 in 105.00 W/m2 unknown
17:39 84.2 °F 59 °F 29.8 in SW 14.9 mph 19.9 mph 43% 0 in 84.00 W/m2 unknown
17:44 84.2 °F 59 °F 29.8 in SW 13 mph 19.9 mph 44% 0 in 67.00 W/m2 unknown
17:49 84.2 °F 60.8 °F 29.8 in SW 12.4 mph 19.9 mph 45% 0 in 56.00 W/m2 unknown
17:54 84.2 °F 60.8 °F 29.8 in WSW 11.8 mph 19.9 mph 46% 0 in 54.00 W/m2 unknown
17:59 84.2 °F 60.8 °F 29.8 in WSW 13 mph 19.9 mph 48% 0 in 49.00 W/m2 unknown
18:04 82.4 °F 62.6 °F 29.8 in WNW 15.5 mph 21.1 mph 55% 0 in 51.00 W/m2 unknown
18:06 82.4 °F 62.6 °F 29.8 in WNW 14.9 mph 21.1 mph 55% 0 in 51.00 W/m2 unknown
18:14 82.4 °F 62.6 °F 29.8 in WNW 14.9 mph 21.1 mph 60% 0 in 67.00 W/m2 unknown
18:19 80.6 °F 64.4 °F 29.8 in WNW 14.9 mph 21.1 mph 61% 0 in 65.00 W/m2 unknown
18:24 78.8 °F 64.4 °F 29.8 in West 13 mph 21.1 mph 62% 0 in 54.00 W/m2 unknown
18:29 77 °F 64.4 °F 29.8 in WSW 8.1 mph 11.8 mph 63% 0 in 67.00 W/m2 unknown
18:34 77 °F 64.4 °F 29.8 in West 6.2 mph 8.1 mph 63% 0 in 67.00 W/m2 unknown
18:39 77 °F 64.4 °F 29.8 in West 6.2 mph 8.1 mph 63% 0 in 72.00 W/m2 unknown
18:44 77 °F 64.4 °F 29.8 in WNW 3.7 mph 6.8 mph 64% 0 in 72.00 W/m2 unknown
18:49 77 °F 64.4 °F 29.8 in West 3.1 mph 6.2 mph 64% 0 in 69.00 W/m2 unknown
18:54 77 °F 64.4 °F 29.8 in NW 1.9 mph 3.7 mph 64% 0 in 67.00 W/m2 unknown
18:59 77 °F 64.4 °F 29.8 in NW 1.9 mph 3.7 mph 64% 0 in 77.00 W/m2 unknown
19:04 77 °F 64.4 °F 29.8 in NNE 3.7 mph 6.2 mph 64% 0 in 77.00 W/m2 unknown
19:09 77 °F 64.4 °F 29.8 in NNE 5 mph 8.1 mph 65% 0 in 93.00 W/m2 unknown
19:11 77 °F 64.4 °F 29.8 in NNE 5 mph 8.1 mph 65% 0 in 93.00 W/m2 unknown
19:18 77 °F 64.4 °F 29.8 in NNE 5 mph 6.8 mph 68% 0 in 149.00 W/m2 unknown
19:23 77 °F 64.4 °F 29.8 in North 5 mph 6.8 mph 68% 0 in 149.00 W/m2 unknown
19:29 77 °F 66.2 °F 29.8 in NNW 5 mph 8.1 mph 69% 0 in 221.00 W/m2 unknown
19:34 77 °F 66.2 °F 29.8 in North 6.2 mph 9.3 mph 69% 0 in 225.00 W/m2 unknown
19:39 77 °F 66.2 °F 29.8 in North 6.2 mph 9.3 mph 68% 0 in 207.00 W/m2 unknown
19:44 77 °F 64.4 °F 29.8 in NNE 5 mph 8.7 mph 67% 0 in 160.00 W/m2 unknown
19:49 77 °F 64.4 °F 29.8 in North 4.3 mph 6.8 mph 67% 0 in 137.00 W/m2 unknown
19:54 77 °F 64.4 °F 29.8 in NNW 5 mph 6.8 mph 67% 0 in 121.00 W/m2 unknown
19:59 77 °F 64.4 °F 29.8 in North 5.6 mph 9.3 mph 67% 0 in 105.00 W/m2 unknown
20:04 77 °F 64.4 °F 29.8 in NW 5.6 mph 9.3 mph 66% 0 in 93.00 W/m2 unknown
20:09 77 °F 64.4 °F 29.8 in NNW 5 mph 8.7 mph 65% 0 in 81.00 W/m2 unknown
20:14 77 °F 64.4 °F 29.8 in NNW 5 mph 6.8 mph 65% 0 in 69.00 W/m2 unknown
20:19 77 °F 64.4 °F 29.8 in North 5 mph 6.8 mph 66% 0 in 28.00 W/m2 unknown
20:24 77 °F 64.4 °F 29.8 in NNW 3.7 mph 6.2 mph 66% 0 in 26.00 W/m2 unknown
20:29 77 °F 64.4 °F 29.8 in NNE 3.7 mph 6.2 mph 67% 0 in 23.00 W/m2 unknown
20:34 77 °F 64.4 °F 29.8 in NNE 3.1 mph 6.2 mph 67% 0 in 21.00 W/m2 unknown
20:39 77 °F 64.4 °F 29.8 in NNE 3.1 mph 6.2 mph 68% 0 in 18.00 W/m2 unknown
20:44 75.2 °F 64.4 °F 29.8 in NNW 1.9 mph 3.7 mph 68% 0 in 16.00 W/m2 unknown
20:49 75.2 °F 64.4 °F 29.8 in NW 2.5 mph 5 mph 68% 0 in 14.00 W/m2 unknown
20:54 75.2 °F 64.4 °F 29.8 in North 3.1 mph 5 mph 68% 0 in 11.00 W/m2 unknown
20:59 75.2 °F 64.4 °F 29.8 in NNE 3.7 mph 4.3 mph 67% 0 in 9.00 W/m2 unknown
21:03 75.2 °F 64.4 °F 29.8 in North 3.1 mph 5 mph 67% 0 in 5.00 W/m2 unknown
21:09 75.2 °F 64.4 °F 29.8 in NNE 1.2 mph 3.7 mph 67% 0 in 0.00 W/m2 unknown
21:14 75.2 °F 64.4 °F 29.8 in North 1.9 mph 3.7 mph 68% 0 in 0.00 W/m2 unknown
21:19 75.2 °F 64.4 °F 29.8 in South 1.9 mph 3.7 mph 71% 0 in 0.00 W/m2 unknown
21:24 75.2 °F 64.4 °F 29.8 in South 1.9 mph 3.7 mph 72% 0 in 0.00 W/m2 unknown
21:29 73.4 °F 64.4 °F 29.8 in SSW 1.2 mph 3.1 mph 72% 0 in 0.00 W/m2 unknown
21:34 73.4 °F 64.4 °F 29.8 in SSW 0.6 mph 2.5 mph 72% 0 in 0.00 W/m2 unknown
21:39 73.4 °F 64.4 °F 29.8 in SSW 0.6 mph 2.5 mph 73% 0 in 0.00 W/m2 unknown
21:44 73.4 °F 64.4 °F 29.8 in SSW 0.6 mph 3.7 mph 74% 0 in 0.00 W/m2 unknown
21:49 73.4 °F 64.4 °F 29.8 in SSW 0.6 mph 3.7 mph 75% 0 in 0.00 W/m2 unknown
21:54 73.4 °F 64.4 °F 29.8 in SSW 1.2 mph 3.7 mph 75% 0 in 0.00 W/m2 unknown
21:59 73.4 °F 64.4 °F 29.8 in SSW 1.9 mph 3.7 mph 76% 0 in 0.00 W/m2 unknown
22:04 71.6 °F 64.4 °F 29.8 in SSW 1.9 mph 3.7 mph 76% 0 in 0.00 W/m2 unknown
22:09 71.6 °F 64.4 °F 29.8 in SW 2.5 mph 3.7 mph 76% 0 in 0.00 W/m2 unknown
22:14 71.6 °F 64.4 °F 29.8 in SSW 1.9 mph 3.7 mph 76% 0 in 0.00 W/m2 unknown
22:19 71.6 °F 64.4 °F 29.8 in SW 1.2 mph 3.1 mph 76% 0 in 0.00 W/m2 unknown
22:24 71.6 °F 64.4 °F 29.8 in SW 1.2 mph 1.9 mph 76% 0 in 0.00 W/m2 unknown
22:29 71.6 °F 64.4 °F 29.8 in WNW 1.2 mph 2.5 mph 76% 0 in 0.00 W/m2 unknown
22:34 71.6 °F 64.4 °F 29.8 in NNW 1.2 mph 3.1 mph 76% 0 in 0.00 W/m2 unknown
22:39 71.6 °F 64.4 °F 29.8 in NNW 1.2 mph 3.7 mph 76% 0 in 0.00 W/m2 unknown
22:44 71.6 °F 64.4 °F 29.8 in NNW 1.2 mph 3.7 mph 76% 0 in 0.00 W/m2 unknown
22:49 71.6 °F 64.4 °F 29.8 in NNW 1.2 mph 3.1 mph 77% 0 in 0.00 W/m2 unknown
22:54 71.6 °F 64.4 °F 29.8 in West 0.6 mph 2.5 mph 78% 0 in 0.00 W/m2 unknown
22:59 71.6 °F 64.4 °F 29.8 in WSW 0.6 mph 2.5 mph 78% 0 in 0.00 W/m2 unknown
23:04 71.6 °F 64.4 °F 29.8 in Calm   1.9 mph 78% 0 in 0.00 W/m2 unknown
23:09 69.8 °F 64.4 °F 29.8 in Calm     79% 0 in 0.00 W/m2 unknown
23:14 69.8 °F 64.4 °F 29.8 in Calm     79% 0 in 0.00 W/m2 unknown
23:19 69.8 °F 64.4 °F 29.8 in Calm   1.2 mph 79% 0 in 0.00 W/m2 unknown
23:24 69.8 °F 64.4 °F 29.8 in WSW 1.2 mph 2.5 mph 80% 0 in 0.00 W/m2 unknown
23:29 69.8 °F 64.4 °F 29.8 in WSW 1.2 mph 3.7 mph 82% 0 in 0.00 W/m2 unknown
23:34 69.8 °F 64.4 °F 29.8 in WSW 1.2 mph 3.7 mph 82% 0 in 0.00 W/m2 unknown
23:39 69.8 °F 64.4 °F 29.8 in WSW 0.6 mph 3.7 mph 82% 0 in 0.00 W/m2 unknown
23:44 69.8 °F 64.4 °F 29.8 in WSW 1.2 mph 1.9 mph 82% 0 in 0.00 W/m2 unknown
23:49 69.8 °F 64.4 °F 29.8 in WSW 0.6 mph 3.7 mph 81% 0 in 0.00 W/m2 unknown
23:54 69.8 °F 64.4 °F 29.8 in South 2.5 mph 3.7 mph 82% 0 in 0.00 W/m2 unknown
23:59 69.8 °F 62.6 °F 29.8 in SSW 1.9 mph 3.7 mph 82% 0 in 0.00 W/m2 unknown
Stazione Meteorologica MeteoMincio Rivalta s/M (MN)
Con i complimenti di Weather Underground - 4 mb



METEO PILLOLE
Maggior quantità di pioggia caduta in 6 ore in Italia
Cairo Montenotte (Savona)
Il 4 ottobre 2021 caddero 496mm di pioggia.
Share

Non seguire questo link o sarai bannato dal sito!